Year,Month,Day,Hour,Minute,Value (Times are PST for temperature in C)
2016,04,09,00,00,9.80
2016,04,09,00,01,9.80
2016,04,09,00,02,9.70
2016,04,09,00,03,9.70
2016,04,09,00,04,9.70
2016,04,09,00,05,9.60
2016,04,09,00,06,9.60
2016,04,09,00,07,9.60
2016,04,09,00,08,9.60
2016,04,09,00,09,9.60
2016,04,09,00,10,9.60
2016,04,09,00,11,9.50
2016,04,09,00,12,9.50
2016,04,09,00,13,9.50
2016,04,09,00,14,9.50
2016,04,09,00,15,9.50
2016,04,09,00,16,9.40
2016,04,09,00,17,9.40
2016,04,09,00,18,9.40
2016,04,09,00,19,9.40
2016,04,09,00,20,9.40
2016,04,09,00,21,9.40
2016,04,09,00,22,9.40
2016,04,09,00,23,9.40
2016,04,09,00,24,9.40
2016,04,09,00,25,9.40
2016,04,09,00,26,9.40
2016,04,09,00,27,9.30
2016,04,09,00,28,9.30
2016,04,09,00,29,9.30
2016,04,09,00,30,9.30
2016,04,09,00,31,9.30
2016,04,09,00,32,9.30
2016,04,09,00,33,9.20
2016,04,09,00,34,9.20
2016,04,09,00,35,9.30
2016,04,09,00,36,9.30
2016,04,09,00,37,9.30
2016,04,09,00,38,9.30
2016,04,09,00,39,9.20
2016,04,09,00,40,9.20
2016,04,09,00,41,9.20
2016,04,09,00,42,9.20
2016,04,09,00,43,9.20
2016,04,09,00,44,9.20
2016,04,09,00,45,9.20
2016,04,09,00,46,9.20
2016,04,09,00,47,9.20
2016,04,09,00,48,9.20
2016,04,09,00,49,9.20
2016,04,09,00,50,9.20
2016,04,09,00,51,9.20
2016,04,09,00,52,9.20
2016,04,09,00,53,9.20
2016,04,09,00,54,9.20
2016,04,09,00,55,9.20
2016,04,09,00,56,9.20
2016,04,09,00,57,9.20
2016,04,09,00,58,9.20
2016,04,09,00,59,9.20
2016,04,09,01,00,9.10
2016,04,09,01,01,9.10
2016,04,09,01,02,9.10
2016,04,09,01,03,9.10
2016,04,09,01,04,9.10
2016,04,09,01,05,9.10
2016,04,09,01,06,9.10
2016,04,09,01,07,9.10
2016,04,09,01,08,9.10
2016,04,09,01,09,9.10
2016,04,09,01,10,9.10
2016,04,09,01,11,9.00
2016,04,09,01,12,9.00
2016,04,09,01,13,9.00
2016,04,09,01,14,9.00
2016,04,09,01,15,9.00
2016,04,09,01,16,9.00
2016,04,09,01,17,9.00
2016,04,09,01,18,9.00
2016,04,09,01,19,9.00
2016,04,09,01,20,9.00
2016,04,09,01,21,9.00
2016,04,09,01,22,8.90
2016,04,09,01,23,8.90
2016,04,09,01,24,8.90
2016,04,09,01,25,8.90
2016,04,09,01,26,8.90
2016,04,09,01,27,8.90
2016,04,09,01,28,8.90
2016,04,09,01,29,8.90
2016,04,09,01,30,8.90
2016,04,09,01,31,8.90
2016,04,09,01,32,8.90
2016,04,09,01,33,8.90
2016,04,09,01,34,8.90
2016,04,09,01,35,8.80
2016,04,09,01,36,8.80
2016,04,09,01,37,8.80
2016,04,09,01,38,8.80
2016,04,09,01,39,8.80
2016,04,09,01,40,8.80
2016,04,09,01,41,8.80
2016,04,09,01,42,8.80
2016,04,09,01,43,8.80
2016,04,09,01,44,8.80
2016,04,09,01,45,8.70
2016,04,09,01,46,8.70
2016,04,09,01,47,8.70
2016,04,09,01,48,8.70
2016,04,09,01,49,8.70
2016,04,09,01,50,8.70
2016,04,09,01,51,8.70
2016,04,09,01,52,8.70
2016,04,09,01,53,8.70
2016,04,09,01,54,8.70
2016,04,09,01,55,8.60
2016,04,09,01,56,8.60
2016,04,09,01,57,8.60
2016,04,09,01,58,8.60
2016,04,09,01,59,8.60
2016,04,09,02,00,8.60
2016,04,09,02,01,8.60
2016,04,09,02,02,8.50
2016,04,09,02,03,8.50
2016,04,09,02,04,8.50
2016,04,09,02,05,8.50
2016,04,09,02,06,8.40
2016,04,09,02,07,8.40
2016,04,09,02,08,8.40
2016,04,09,02,09,8.40
2016,04,09,02,10,8.40
2016,04,09,02,11,8.40
2016,04,09,02,12,8.40
2016,04,09,02,13,8.40
2016,04,09,02,14,8.40
2016,04,09,02,15,8.40
2016,04,09,02,16,8.40
2016,04,09,02,17,8.30
2016,04,09,02,18,8.30
2016,04,09,02,19,8.30
2016,04,09,02,20,8.30
2016,04,09,02,21,8.30
2016,04,09,02,22,8.30
2016,04,09,02,23,8.30
2016,04,09,02,24,8.30
2016,04,09,02,25,8.30
2016,04,09,02,26,8.30
2016,04,09,02,27,8.30
2016,04,09,02,28,8.30
2016,04,09,02,29,8.30
2016,04,09,02,30,8.30
2016,04,09,02,31,8.30
2016,04,09,02,32,8.30
2016,04,09,02,33,8.30
2016,04,09,02,34,8.20
2016,04,09,02,35,8.20
2016,04,09,02,36,8.20
2016,04,09,02,37,8.20
2016,04,09,02,38,8.20
2016,04,09,02,39,8.10
2016,04,09,02,40,8.10
2016,04,09,02,41,8.10
2016,04,09,02,42,8.10
2016,04,09,02,43,8.10
2016,04,09,02,44,8.10
2016,04,09,02,45,8.10
2016,04,09,02,46,8.10
2016,04,09,02,47,8.10
2016,04,09,02,48,8.00
2016,04,09,02,49,8.00
2016,04,09,02,50,8.00
2016,04,09,02,51,7.90
2016,04,09,02,52,7.90
2016,04,09,02,53,7.90
2016,04,09,02,54,7.90
2016,04,09,02,55,7.80
2016,04,09,02,56,7.80
2016,04,09,02,57,7.80
2016,04,09,02,58,7.80
2016,04,09,02,59,7.80
2016,04,09,03,00,7.80
2016,04,09,03,01,7.80
2016,04,09,03,02,7.70
2016,04,09,03,03,7.70
2016,04,09,03,04,7.70
2016,04,09,03,05,7.70
2016,04,09,03,06,7.70
2016,04,09,03,07,7.60
2016,04,09,03,08,7.60
2016,04,09,03,09,7.60
2016,04,09,03,10,7.60
2016,04,09,03,11,7.60
2016,04,09,03,12,7.60
2016,04,09,03,13,7.60
2016,04,09,03,14,7.60
2016,04,09,03,15,7.60
2016,04,09,03,16,7.60
2016,04,09,03,17,7.60
2016,04,09,03,18,7.60
2016,04,09,03,19,7.50
2016,04,09,03,20,7.50
2016,04,09,03,21,7.50
2016,04,09,03,22,7.50
2016,04,09,03,23,7.50
2016,04,09,03,24,7.50
2016,04,09,03,25,7.50
2016,04,09,03,26,7.50
2016,04,09,03,27,7.50
2016,04,09,03,28,7.50
2016,04,09,03,29,7.50
2016,04,09,03,30,7.50
2016,04,09,03,31,7.50
2016,04,09,03,32,7.50
2016,04,09,03,33,7.50
2016,04,09,03,34,7.50
2016,04,09,03,35,7.50
2016,04,09,03,36,7.50
2016,04,09,03,37,7.50
2016,04,09,03,38,7.50
2016,04,09,03,39,7.50
2016,04,09,03,40,7.50
2016,04,09,03,41,7.50
2016,04,09,03,42,7.50
2016,04,09,03,43,7.50
2016,04,09,03,44,7.50
2016,04,09,03,45,7.40
2016,04,09,03,46,7.40
2016,04,09,03,47,7.40
2016,04,09,03,48,7.40
2016,04,09,03,49,7.40
2016,04,09,03,50,7.40
2016,04,09,03,51,7.40
2016,04,09,03,52,7.30
2016,04,09,03,53,7.30
2016,04,09,03,54,7.30
2016,04,09,03,55,7.30
2016,04,09,03,56,7.30
2016,04,09,03,57,7.30
2016,04,09,03,58,7.30
2016,04,09,03,59,7.30
2016,04,09,04,00,7.30
2016,04,09,04,01,7.20
2016,04,09,04,02,7.20
2016,04,09,04,03,7.20
2016,04,09,04,04,7.20
2016,04,09,04,05,7.20
2016,04,09,04,06,7.20
2016,04,09,04,07,7.20
2016,04,09,04,08,7.20
2016,04,09,04,09,7.20
2016,04,09,04,10,7.20
2016,04,09,04,11,7.20
2016,04,09,04,12,7.20
2016,04,09,04,13,7.20
2016,04,09,04,14,7.10
2016,04,09,04,15,7.10
2016,04,09,04,16,7.10
2016,04,09,04,17,7.10
2016,04,09,04,18,7.10
2016,04,09,04,19,7.10
2016,04,09,04,20,7.10
2016,04,09,04,21,7.00
2016,04,09,04,22,7.00
2016,04,09,04,23,7.00
2016,04,09,04,24,7.00
2016,04,09,04,25,6.90
2016,04,09,04,26,7.00
2016,04,09,04,27,7.00
2016,04,09,04,28,7.00
2016,04,09,04,29,6.90
2016,04,09,04,30,6.90
2016,04,09,04,31,6.90
2016,04,09,04,32,6.90
2016,04,09,04,33,6.90
2016,04,09,04,34,6.90
2016,04,09,04,35,6.90
2016,04,09,04,36,6.90
2016,04,09,04,37,6.80
2016,04,09,04,38,6.80
2016,04,09,04,39,6.80
2016,04,09,04,40,6.80
2016,04,09,04,41,6.80
2016,04,09,04,42,6.80
2016,04,09,04,43,6.80
2016,04,09,04,44,6.80
2016,04,09,04,45,6.80
2016,04,09,04,46,6.80
2016,04,09,04,47,6.80
2016,04,09,04,48,6.80
2016,04,09,04,49,6.80
2016,04,09,04,50,6.80
2016,04,09,04,51,6.80
2016,04,09,04,52,6.70
2016,04,09,04,53,6.70
2016,04,09,04,54,6.70
2016,04,09,04,55,6.70
2016,04,09,04,56,6.70
2016,04,09,04,57,6.70
2016,04,09,04,58,6.70
2016,04,09,04,59,6.70
2016,04,09,05,00,6.70
2016,04,09,05,01,6.70
2016,04,09,05,02,6.60
2016,04,09,05,03,6.60
2016,04,09,05,04,6.60
2016,04,09,05,05,6.60
2016,04,09,05,06,6.50
2016,04,09,05,07,6.50
2016,04,09,05,08,6.50
2016,04,09,05,09,6.50
2016,04,09,05,10,6.40
2016,04,09,05,11,6.40
2016,04,09,05,12,6.40
2016,04,09,05,13,6.40
2016,04,09,05,14,6.40
2016,04,09,05,15,6.40
2016,04,09,05,16,6.40
2016,04,09,05,17,6.30
2016,04,09,05,18,6.30
2016,04,09,05,19,6.30
2016,04,09,05,20,6.30
2016,04,09,05,21,6.30
2016,04,09,05,22,6.30
2016,04,09,05,23,6.30
2016,04,09,05,24,6.30
2016,04,09,05,25,6.30
2016,04,09,05,26,6.20
2016,04,09,05,27,6.20
2016,04,09,05,28,6.20
2016,04,09,05,29,6.20
2016,04,09,05,30,6.20
2016,04,09,05,31,6.20
2016,04,09,05,32,6.20
2016,04,09,05,33,6.20
2016,04,09,05,34,6.20
2016,04,09,05,35,6.10
2016,04,09,05,36,6.10
2016,04,09,05,37,6.10
2016,04,09,05,38,6.10
2016,04,09,05,39,6.10
2016,04,09,05,40,6.10
2016,04,09,05,41,6.00
2016,04,09,05,42,6.00
2016,04,09,05,43,6.00
2016,04,09,05,44,6.00
2016,04,09,05,45,6.00
2016,04,09,05,46,5.90
2016,04,09,05,47,5.90
2016,04,09,05,48,5.90
2016,04,09,05,49,5.90
2016,04,09,05,50,5.90
2016,04,09,05,51,5.80
2016,04,09,05,52,5.80
2016,04,09,05,53,5.80
2016,04,09,05,54,5.80
2016,04,09,05,55,5.80
2016,04,09,05,56,5.80
2016,04,09,05,57,5.80
2016,04,09,05,58,5.80
2016,04,09,05,59,5.70
2016,04,09,06,00,5.70
2016,04,09,06,01,5.70
2016,04,09,06,02,5.70
2016,04,09,06,03,5.70
2016,04,09,06,04,5.70
2016,04,09,06,05,5.80
2016,04,09,06,06,5.80
2016,04,09,06,07,5.80
2016,04,09,06,08,5.80
2016,04,09,06,09,5.80
2016,04,09,06,10,5.70
2016,04,09,06,11,5.80
2016,04,09,06,12,5.80
2016,04,09,06,13,5.80
2016,04,09,06,14,5.80
2016,04,09,06,15,5.80
2016,04,09,06,16,5.80
2016,04,09,06,17,5.80
2016,04,09,06,18,5.80
2016,04,09,06,19,5.70
2016,04,09,06,20,5.70
2016,04,09,06,21,5.70
2016,04,09,06,22,5.70
2016,04,09,06,23,5.70
2016,04,09,06,24,5.60
2016,04,09,06,25,5.60
2016,04,09,06,26,5.60
2016,04,09,06,27,5.60
2016,04,09,06,28,5.60
2016,04,09,06,29,5.60
2016,04,09,06,30,5.60
2016,04,09,06,31,5.70
2016,04,09,06,32,5.70
2016,04,09,06,33,5.70
2016,04,09,06,34,5.70
2016,04,09,06,35,5.70
2016,04,09,06,36,5.70
2016,04,09,06,37,5.70
2016,04,09,06,38,5.70
2016,04,09,06,39,5.70
2016,04,09,06,40,5.70
2016,04,09,06,41,5.70
2016,04,09,06,42,5.70
2016,04,09,06,43,5.70
2016,04,09,06,44,5.70
2016,04,09,06,45,5.70
2016,04,09,06,46,5.70
2016,04,09,06,47,5.70
2016,04,09,06,48,5.60
2016,04,09,06,49,5.70
2016,04,09,06,50,5.60
2016,04,09,06,51,5.60
2016,04,09,06,52,5.60
2016,04,09,06,53,5.60
2016,04,09,06,54,5.60
2016,04,09,06,55,5.60
2016,04,09,06,56,5.60
2016,04,09,06,57,5.50
2016,04,09,06,58,5.50
2016,04,09,06,59,5.50
2016,04,09,07,00,5.50
2016,04,09,07,01,5.50
2016,04,09,07,02,5.50
2016,04,09,07,03,5.50
2016,04,09,07,04,5.40
2016,04,09,07,05,5.40
2016,04,09,07,06,5.40
2016,04,09,07,07,5.40
2016,04,09,07,08,5.40
2016,04,09,07,09,5.40
2016,04,09,07,10,5.50
2016,04,09,07,11,5.50
2016,04,09,07,12,5.60
2016,04,09,07,13,5.60
2016,04,09,07,14,5.60
2016,04,09,07,15,5.60
2016,04,09,07,16,5.70
2016,04,09,07,17,5.70
2016,04,09,07,18,5.70
2016,04,09,07,19,5.80
2016,04,09,07,20,5.80
2016,04,09,07,21,5.90
2016,04,09,07,22,5.90
2016,04,09,07,23,5.90
2016,04,09,07,24,5.90
2016,04,09,07,25,5.90
2016,04,09,07,26,5.90
2016,04,09,07,27,5.90
2016,04,09,07,28,6.00
2016,04,09,07,29,6.00
2016,04,09,07,30,6.00
2016,04,09,07,31,6.00
2016,04,09,07,32,6.00
2016,04,09,07,33,6.00
2016,04,09,07,34,6.00
2016,04,09,07,35,6.10
2016,04,09,07,36,6.10
2016,04,09,07,37,6.10
2016,04,09,07,38,6.10
2016,04,09,07,39,6.10
2016,04,09,07,40,6.10
2016,04,09,07,41,6.20
2016,04,09,07,42,6.20
2016,04,09,07,43,6.20
2016,04,09,07,44,6.20
2016,04,09,07,45,6.20
2016,04,09,07,46,6.20
2016,04,09,07,47,6.20
2016,04,09,07,48,6.20
2016,04,09,07,49,6.20
2016,04,09,07,50,6.30
2016,04,09,07,51,6.30
2016,04,09,07,52,6.30
2016,04,09,07,53,6.40
2016,04,09,07,54,6.40
2016,04,09,07,55,6.40
2016,04,09,07,56,6.50
2016,04,09,07,57,6.50
2016,04,09,07,58,6.50
2016,04,09,07,59,6.60
2016,04,09,08,00,6.60
2016,04,09,08,01,6.60
2016,04,09,08,02,6.70
2016,04,09,08,03,6.70
2016,04,09,08,04,6.70
2016,04,09,08,05,6.70
2016,04,09,08,06,6.80
2016,04,09,08,07,6.70
2016,04,09,08,08,6.80
2016,04,09,08,09,6.80
2016,04,09,08,10,6.80
2016,04,09,08,11,6.80
2016,04,09,08,12,6.90
2016,04,09,08,13,6.90
2016,04,09,08,14,7.00
2016,04,09,08,15,7.10
2016,04,09,08,16,7.10
2016,04,09,08,17,7.20
2016,04,09,08,18,7.20
2016,04,09,08,19,7.30
2016,04,09,08,20,7.40
2016,04,09,08,21,7.40
2016,04,09,08,22,7.50
2016,04,09,08,23,7.50
2016,04,09,08,24,7.60
2016,04,09,08,25,7.60
2016,04,09,08,26,7.60
2016,04,09,08,27,7.60
2016,04,09,08,28,7.70
2016,04,09,08,29,7.70
2016,04,09,08,30,7.80
2016,04,09,08,31,7.80
2016,04,09,08,32,7.80
2016,04,09,08,33,7.80
2016,04,09,08,34,7.90
2016,04,09,08,35,7.90
2016,04,09,08,36,7.90
2016,04,09,08,37,8.00
2016,04,09,08,38,8.00
2016,04,09,08,39,8.10
2016,04,09,08,40,8.20
2016,04,09,08,41,8.20
2016,04,09,08,42,8.30
2016,04,09,08,43,8.40
2016,04,09,08,44,8.40
2016,04,09,08,45,8.50
2016,04,09,08,46,8.50
2016,04,09,08,47,8.60
2016,04,09,08,48,8.60
2016,04,09,08,49,8.70
2016,04,09,08,50,8.80
2016,04,09,08,51,8.80
2016,04,09,08,52,8.80
2016,04,09,08,53,8.90
2016,04,09,08,54,8.90
2016,04,09,08,55,9.00
2016,04,09,08,56,9.10
2016,04,09,08,57,9.10
2016,04,09,08,58,9.10
2016,04,09,08,59,9.10
2016,04,09,09,00,9.20
2016,04,09,09,01,9.20
2016,04,09,09,02,9.20
2016,04,09,09,03,9.30
2016,04,09,09,04,9.30
2016,04,09,09,05,9.30
2016,04,09,09,06,9.30
2016,04,09,09,07,9.40
2016,04,09,09,08,9.40
2016,04,09,09,09,9.30
2016,04,09,09,10,9.30
2016,04,09,09,11,9.20
2016,04,09,09,12,9.00
2016,04,09,09,13,8.90
2016,04,09,09,14,8.70
2016,04,09,09,15,8.50
2016,04,09,09,16,8.40
2016,04,09,09,17,8.30
2016,04,09,09,18,8.20
2016,04,09,09,19,8.10
2016,04,09,09,20,8.00
2016,04,09,09,21,7.90
2016,04,09,09,22,7.90
2016,04,09,09,23,7.90
2016,04,09,09,24,7.80
2016,04,09,09,25,7.80
2016,04,09,09,26,7.80
2016,04,09,09,27,7.70
2016,04,09,09,28,7.70
2016,04,09,09,29,7.70
2016,04,09,09,30,7.70
2016,04,09,09,31,7.70
2016,04,09,09,32,7.60
2016,04,09,09,33,7.60
2016,04,09,09,34,7.60
2016,04,09,09,35,7.60
2016,04,09,09,36,7.70
2016,04,09,09,37,7.70
2016,04,09,09,38,7.60
2016,04,09,09,39,7.50
2016,04,09,09,40,7.40
2016,04,09,09,41,7.40
2016,04,09,09,42,7.40
2016,04,09,09,43,7.40
2016,04,09,09,44,7.50
2016,04,09,09,45,7.50
2016,04,09,09,46,7.60
2016,04,09,09,47,7.60
2016,04,09,09,48,7.70
2016,04,09,09,49,7.70
2016,04,09,09,50,7.70
2016,04,09,09,51,7.70
2016,04,09,09,52,7.70
2016,04,09,09,53,7.70
2016,04,09,09,54,7.70
2016,04,09,09,55,7.80
2016,04,09,09,56,7.80
2016,04,09,09,57,7.90
2016,04,09,09,58,7.90
2016,04,09,09,59,7.90
2016,04,09,10,00,7.80
2016,04,09,10,01,7.80
2016,04,09,10,02,7.80
2016,04,09,10,03,7.80
2016,04,09,10,04,7.70
2016,04,09,10,05,7.70
2016,04,09,10,06,7.70
2016,04,09,10,07,7.60
2016,04,09,10,08,7.60
2016,04,09,10,09,7.60
2016,04,09,10,10,7.50
2016,04,09,10,11,7.60
2016,04,09,10,12,7.60
2016,04,09,10,13,7.60
2016,04,09,10,14,7.60
2016,04,09,10,15,7.70
2016,04,09,10,16,7.70
2016,04,09,10,17,7.80
2016,04,09,10,18,7.80
2016,04,09,10,19,7.80
2016,04,09,10,20,7.80
2016,04,09,10,21,7.90
2016,04,09,10,22,7.90
2016,04,09,10,23,7.90
2016,04,09,10,24,8.00
2016,04,09,10,25,8.00
2016,04,09,10,26,8.10
2016,04,09,10,27,8.10
2016,04,09,10,28,8.20
2016,04,09,10,29,8.20
2016,04,09,10,30,8.20
2016,04,09,10,31,8.20
2016,04,09,10,32,8.20
2016,04,09,10,33,8.20
2016,04,09,10,34,8.10
2016,04,09,10,35,8.10
2016,04,09,10,36,8.10
2016,04,09,10,37,8.10
2016,04,09,10,38,8.10
2016,04,09,10,39,8.10
2016,04,09,10,40,8.10
2016,04,09,10,41,8.10
2016,04,09,10,42,8.10
2016,04,09,10,43,8.10
2016,04,09,10,44,8.10
2016,04,09,10,45,8.20
2016,04,09,10,46,8.20
2016,04,09,10,47,8.20
2016,04,09,10,48,8.20
2016,04,09,10,49,8.20
2016,04,09,10,50,8.20
2016,04,09,10,51,8.30
2016,04,09,10,52,8.30
2016,04,09,10,53,8.30
2016,04,09,10,54,8.30
2016,04,09,10,55,8.30
2016,04,09,10,56,8.30
2016,04,09,10,57,8.40
2016,04,09,10,58,8.40
2016,04,09,10,59,8.40
2016,04,09,11,00,8.50
2016,04,09,11,01,8.50
2016,04,09,11,02,8.60
2016,04,09,11,03,8.50
2016,04,09,11,04,8.60
2016,04,09,11,05,8.60
2016,04,09,11,06,8.60
2016,04,09,11,07,8.60
2016,04,09,11,08,8.70
2016,04,09,11,09,8.70
2016,04,09,11,10,8.70
2016,04,09,11,11,8.70
2016,04,09,11,12,8.70
2016,04,09,11,13,8.70
2016,04,09,11,14,8.70
2016,04,09,11,15,8.70
2016,04,09,11,16,8.80
2016,04,09,11,17,8.80
2016,04,09,11,18,8.90
2016,04,09,11,19,8.90
2016,04,09,11,20,9.00
2016,04,09,11,21,9.00
2016,04,09,11,22,9.10
2016,04,09,11,23,9.10
2016,04,09,11,24,9.00
2016,04,09,11,25,9.10
2016,04,09,11,26,9.10
2016,04,09,11,27,9.20
2016,04,09,11,28,9.20
2016,04,09,11,29,9.30
2016,04,09,11,30,9.40
2016,04,09,11,31,9.50
2016,04,09,11,32,9.60
2016,04,09,11,33,9.70
2016,04,09,11,34,9.70
2016,04,09,11,35,9.80
2016,04,09,11,36,9.80
2016,04,09,11,37,9.80
2016,04,09,11,38,9.90
2016,04,09,11,39,10.00
2016,04,09,11,40,10.00
2016,04,09,11,41,10.10
2016,04,09,11,42,10.20
2016,04,09,11,43,10.30
2016,04,09,11,44,10.30
2016,04,09,11,45,10.40
2016,04,09,11,46,10.40
2016,04,09,11,47,10.50
2016,04,09,11,48,10.60
2016,04,09,11,49,10.70
2016,04,09,11,50,10.70
2016,04,09,11,51,10.80
2016,04,09,11,52,10.80
2016,04,09,11,53,10.80
2016,04,09,11,54,10.80
2016,04,09,11,55,10.70
2016,04,09,11,56,10.70
2016,04,09,11,57,10.70
2016,04,09,11,58,10.80
2016,04,09,11,59,10.80
2016,04,09,12,00,10.90
2016,04,09,12,01,11.00
2016,04,09,12,02,11.10
2016,04,09,12,03,11.20
2016,04,09,12,04,11.30
2016,04,09,12,05,11.40
2016,04,09,12,06,11.50
2016,04,09,12,07,11.60
2016,04,09,12,08,11.70
2016,04,09,12,09,11.70
2016,04,09,12,10,11.70
2016,04,09,12,11,11.80
2016,04,09,12,12,11.80
2016,04,09,12,13,11.90
2016,04,09,12,14,12.00
2016,04,09,12,15,12.00
2016,04,09,12,16,12.00
2016,04,09,12,17,12.10
2016,04,09,12,18,12.10
2016,04,09,12,19,12.20
2016,04,09,12,20,12.20
2016,04,09,12,21,12.30
2016,04,09,12,22,12.30
2016,04,09,12,23,12.30
2016,04,09,12,24,12.30
2016,04,09,12,25,12.40
2016,04,09,12,26,12.30
2016,04,09,12,27,12.40
2016,04,09,12,28,12.30
2016,04,09,12,29,12.30
2016,04,09,12,30,12.20
2016,04,09,12,31,12.10
2016,04,09,12,32,12.10
2016,04,09,12,33,12.10
2016,04,09,12,34,12.10
2016,04,09,12,35,12.20
2016,04,09,12,36,12.20
2016,04,09,12,37,12.30
2016,04,09,12,38,12.30
2016,04,09,12,39,12.40
2016,04,09,12,40,12.50
2016,04,09,12,41,12.60
2016,04,09,12,42,12.60
2016,04,09,12,43,12.60
2016,04,09,12,44,12.60
2016,04,09,12,45,12.70
2016,04,09,12,46,12.70
2016,04,09,12,47,12.80
2016,04,09,12,48,12.80
2016,04,09,12,49,12.80
2016,04,09,12,50,12.90
2016,04,09,12,51,12.90
2016,04,09,12,52,12.90
2016,04,09,12,53,12.90
2016,04,09,12,54,13.00
2016,04,09,12,55,13.00
2016,04,09,12,56,13.10
2016,04,09,12,57,13.10
2016,04,09,12,58,13.10
2016,04,09,12,59,13.20
2016,04,09,13,00,13.30
2016,04,09,13,01,13.40
2016,04,09,13,02,13.50
2016,04,09,13,03,13.50
2016,04,09,13,04,13.40
2016,04,09,13,05,13.40
2016,04,09,13,06,13.30
2016,04,09,13,07,13.30
2016,04,09,13,08,13.30
2016,04,09,13,09,13.40
2016,04,09,13,10,13.40
2016,04,09,13,11,13.40
2016,04,09,13,12,13.40
2016,04,09,13,13,13.30
2016,04,09,13,14,13.30
2016,04,09,13,15,13.30
2016,04,09,13,16,13.40
2016,04,09,13,17,13.40
2016,04,09,13,18,13.40
2016,04,09,13,19,13.40
2016,04,09,13,20,13.50
2016,04,09,13,21,13.50
2016,04,09,13,22,13.50
2016,04,09,13,23,13.60
2016,04,09,13,24,13.70
2016,04,09,13,25,13.70
2016,04,09,13,26,13.70
2016,04,09,13,27,13.60
2016,04,09,13,28,13.50
2016,04,09,13,29,13.50
2016,04,09,13,30,13.40
2016,04,09,13,31,13.40
2016,04,09,13,32,13.30
2016,04,09,13,33,13.30
2016,04,09,13,34,13.30
2016,04,09,13,35,13.30
2016,04,09,13,36,13.30
2016,04,09,13,37,13.30
2016,04,09,13,38,13.30
2016,04,09,13,39,13.40
2016,04,09,13,40,13.30
2016,04,09,13,41,13.30
2016,04,09,13,42,13.30
2016,04,09,13,43,13.30
2016,04,09,13,44,13.30
2016,04,09,13,45,13.40
2016,04,09,13,46,13.40
2016,04,09,13,47,13.40
2016,04,09,13,48,13.40
2016,04,09,13,49,13.40
2016,04,09,13,50,13.40
2016,04,09,13,51,13.50
2016,04,09,13,52,13.60
2016,04,09,13,53,13.70
2016,04,09,13,54,13.80
2016,04,09,13,55,13.90
2016,04,09,13,56,14.00
2016,04,09,13,57,14.10
2016,04,09,13,58,14.10
2016,04,09,13,59,14.10
2016,04,09,14,00,14.20
2016,04,09,14,01,14.10
2016,04,09,14,02,14.00
2016,04,09,14,03,13.90
2016,04,09,14,04,13.90
2016,04,09,14,05,13.80
2016,04,09,14,06,13.80
2016,04,09,14,07,13.80
2016,04,09,14,08,13.80
2016,04,09,14,09,13.80
2016,04,09,14,10,13.80
2016,04,09,14,11,13.90
2016,04,09,14,12,13.90
2016,04,09,14,13,14.00
2016,04,09,14,14,13.90
2016,04,09,14,15,13.90
2016,04,09,14,16,13.90
2016,04,09,14,17,13.90
2016,04,09,14,18,13.90
2016,04,09,14,19,13.90
2016,04,09,14,20,13.90
2016,04,09,14,21,14.00
2016,04,09,14,22,14.10
2016,04,09,14,23,14.30
2016,04,09,14,24,14.30
2016,04,09,14,25,14.40
2016,04,09,14,26,14.40
2016,04,09,14,27,14.40
2016,04,09,14,28,14.40
2016,04,09,14,29,14.30
2016,04,09,14,30,14.30
2016,04,09,14,31,14.20
2016,04,09,14,32,14.20
2016,04,09,14,33,14.10
2016,04,09,14,34,14.10
2016,04,09,14,35,14.10
2016,04,09,14,36,14.10
2016,04,09,14,37,14.10
2016,04,09,14,38,14.00
2016,04,09,14,39,14.00
2016,04,09,14,40,13.90
2016,04,09,14,41,13.90
2016,04,09,14,42,13.90
2016,04,09,14,43,14.00
2016,04,09,14,44,14.00
2016,04,09,14,45,14.10
2016,04,09,14,46,14.10
2016,04,09,14,47,14.10
2016,04,09,14,48,14.10
2016,04,09,14,49,14.10
2016,04,09,14,50,14.10
2016,04,09,14,51,14.20
2016,04,09,14,52,14.20
2016,04,09,14,53,14.30
2016,04,09,14,54,14.30
2016,04,09,14,55,14.20
2016,04,09,14,56,14.10
2016,04,09,14,57,14.00
2016,04,09,14,58,14.00
2016,04,09,14,59,13.90
2016,04,09,15,00,13.80
2016,04,09,15,01,13.80
2016,04,09,15,02,13.80
2016,04,09,15,03,13.70
2016,04,09,15,04,13.60
2016,04,09,15,05,13.60
2016,04,09,15,06,13.60
2016,04,09,15,07,13.50
2016,04,09,15,08,13.50
2016,04,09,15,09,13.60
2016,04,09,15,10,13.70
2016,04,09,15,11,13.70
2016,04,09,15,12,13.80
2016,04,09,15,13,13.90
2016,04,09,15,14,13.90
2016,04,09,15,15,13.90
2016,04,09,15,16,13.90
2016,04,09,15,17,13.80
2016,04,09,15,18,13.80
2016,04,09,15,19,13.70
2016,04,09,15,20,13.70
2016,04,09,15,21,13.70
2016,04,09,15,22,13.80
2016,04,09,15,23,13.90
2016,04,09,15,24,14.00
2016,04,09,15,25,14.10
2016,04,09,15,26,14.20
2016,04,09,15,27,14.20
2016,04,09,15,28,14.20
2016,04,09,15,29,14.30
2016,04,09,15,30,14.30
2016,04,09,15,31,14.20
2016,04,09,15,32,14.10
2016,04,09,15,33,14.10
2016,04,09,15,34,14.10
2016,04,09,15,35,14.00
2016,04,09,15,36,14.00
2016,04,09,15,37,14.00
2016,04,09,15,38,14.00
2016,04,09,15,39,14.10
2016,04,09,15,40,14.10
2016,04,09,15,41,14.10
2016,04,09,15,42,14.20
2016,04,09,15,43,14.30
2016,04,09,15,44,14.40
2016,04,09,15,45,14.50
2016,04,09,15,46,14.50
2016,04,09,15,47,14.60
2016,04,09,15,48,14.60
2016,04,09,15,49,14.60
2016,04,09,15,50,14.60
2016,04,09,15,51,14.60
2016,04,09,15,52,14.70
2016,04,09,15,53,14.70
2016,04,09,15,54,14.60
2016,04,09,15,55,14.60
2016,04,09,15,56,14.60
2016,04,09,15,57,14.60
2016,04,09,15,58,14.60
2016,04,09,15,59,14.70
2016,04,09,16,00,14.70
2016,04,09,16,01,14.80
2016,04,09,16,02,14.80
2016,04,09,16,03,14.80
2016,04,09,16,04,14.80
2016,04,09,16,05,14.80
2016,04,09,16,06,14.80
2016,04,09,16,07,14.80
2016,04,09,16,08,14.80
2016,04,09,16,09,14.90
2016,04,09,16,10,14.90
2016,04,09,16,11,14.90
2016,04,09,16,12,14.90
2016,04,09,16,13,15.00
2016,04,09,16,14,15.00
2016,04,09,16,15,15.00
2016,04,09,16,16,14.90
2016,04,09,16,17,14.90
2016,04,09,16,18,14.90
2016,04,09,16,19,14.90
2016,04,09,16,20,14.90
2016,04,09,16,21,14.90
2016,04,09,16,22,14.90
2016,04,09,16,23,14.80
2016,04,09,16,24,14.80
2016,04,09,16,25,14.80
2016,04,09,16,26,14.70
2016,04,09,16,27,14.60
2016,04,09,16,28,14.60
2016,04,09,16,29,14.50
2016,04,09,16,30,14.40
2016,04,09,16,31,14.40
2016,04,09,16,32,14.30
2016,04,09,16,33,14.30
2016,04,09,16,34,14.30
2016,04,09,16,35,14.30
2016,04,09,16,36,14.40
2016,04,09,16,37,14.40
2016,04,09,16,38,14.40
2016,04,09,16,39,14.50
2016,04,09,16,40,14.50
2016,04,09,16,41,14.60
2016,04,09,16,42,14.70
2016,04,09,16,43,14.70
2016,04,09,16,44,14.70
2016,04,09,16,45,14.80
2016,04,09,16,46,14.80
2016,04,09,16,47,14.80
2016,04,09,16,48,14.80
2016,04,09,16,49,14.80
2016,04,09,16,50,14.90
2016,04,09,16,51,14.80
2016,04,09,16,52,14.80
2016,04,09,16,53,14.80
2016,04,09,16,54,14.80
2016,04,09,16,55,14.80
2016,04,09,16,56,14.80
2016,04,09,16,57,14.80
2016,04,09,16,58,14.70
2016,04,09,16,59,14.70
2016,04,09,17,00,14.70
2016,04,09,17,01,14.70
2016,04,09,17,02,14.70
2016,04,09,17,03,14.60
2016,04,09,17,04,14.60
2016,04,09,17,05,14.50
2016,04,09,17,06,14.40
2016,04,09,17,07,14.40
2016,04,09,17,08,14.40
2016,04,09,17,09,14.40
2016,04,09,17,10,14.40
2016,04,09,17,11,14.40
2016,04,09,17,12,14.40
2016,04,09,17,13,14.40
2016,04,09,17,14,14.40
2016,04,09,17,15,14.40
2016,04,09,17,16,14.40
2016,04,09,17,17,14.40
2016,04,09,17,18,14.40
2016,04,09,17,19,14.40
2016,04,09,17,20,14.40
2016,04,09,17,21,14.40
2016,04,09,17,22,14.40
2016,04,09,17,23,14.50
2016,04,09,17,24,14.50
2016,04,09,17,25,14.60
2016,04,09,17,26,14.60
2016,04,09,17,27,14.60
2016,04,09,17,28,14.50
2016,04,09,17,29,14.50
2016,04,09,17,30,14.50
2016,04,09,17,31,14.60
2016,04,09,17,32,14.60
2016,04,09,17,33,14.60
2016,04,09,17,34,14.60
2016,04,09,17,35,14.60
2016,04,09,17,36,14.60
2016,04,09,17,37,14.60
2016,04,09,17,38,14.70
2016,04,09,17,39,14.70
2016,04,09,17,40,14.70
2016,04,09,17,41,14.70
2016,04,09,17,42,14.70
2016,04,09,17,43,14.70
2016,04,09,17,44,14.70
2016,04,09,17,45,14.70
2016,04,09,17,46,14.70
2016,04,09,17,47,14.70
2016,04,09,17,48,14.70
2016,04,09,17,49,14.80